• Join FlightAware (Why Join?)
  • Login
  • US Flag 
02:45PM EST


 

Airport Tracker/Info


-or-


 

Live Flight TrackerFlight Track Log ✈ SWA395 ✈ 19-Apr-2013 ✈ KTUL - KLAS

Flight Track Log - Related Links

Times and Time Zones

All times are in EDT time to prevent confusion due to time zone crossing. See the SWA395 flight status page for this flight to view local times or setup timezone preferences in your user account.

Time Position Orientation Groundspeed Altitude Reporting Facility
EDT Latitude Longitude Course Direction KTS MPH feet Rate Location/Type
04:14PM 36.1947 -95.9075 265° West 171 197 1,600  Level Kansas City Center
04:15PM 36.1908 -95.9597 265° West 196 226 3,400 2,049 Climbing Kansas City Center
04:16PM 36.1875 -95.9800 258° West 215 247 4,400 2,806 Climbing Kansas City Center
04:16PM 36.1803 -96.0336 261° West 227 261 6,300 3,344 Climbing Kansas City Center
04:17PM 36.1742 -96.0744 260° West 229 264 7,800 3,106 Climbing Kansas City Center
04:18PM 36.1611 -96.1631 260° West 253 291 10,700 2,160 Climbing Kansas City Center
04:19PM 36.1442 -96.2689 259° West 312 359 12,300 2,160 Climbing Kansas City Center
04:20PM 36.1261 -96.3814 259° West 332 382 15,200 2,634 Climbing Kansas City Center
04:21PM 36.1078 -96.5006 259° West 346 398 17,700 2,244 Climbing Kansas City Center
04:22PM 36.0881 -96.6222 259° West 357 411 19,800 2,064 Climbing Kansas City Center
04:23PM 36.0656 -96.7553 258° West 376 433 22,000 1,887 Climbing Kansas City Center
04:24PM 36.0378 -96.8847 255° West 388 447 23,700 1,742 Climbing Kansas City Center
04:25PM 36.0050 -97.0458 256° West 402 463 25,600 1,632 Climbing Kansas City Center
04:26PM 35.9767 -97.1853 256° West 417 480 27,100 1,392 Climbing Kansas City Center
04:27PM 35.9483 -97.3258 256° West 422 486 28,500 1,536 Climbing Kansas City Center
04:28PM 35.9183 -97.4689 256° West 428 493 30,300 1,574 Climbing Kansas City Center
04:29PM 35.8889 -97.6086 255° West 427 491 31,700 1,340 Climbing Kansas City Center
04:30PM 35.8731 -97.7006 258° West 431 496 32,400 1,484 Climbing Fort Worth Center
04:31PM 35.8392 -97.8411 253° West 431 496 34,000 1,513 Climbing Fort Worth Center
04:32PM 35.8117 -97.9767 256° West 426 490 35,400 1,008 Climbing Fort Worth Center
04:33PM 35.7919 -98.1147 260° West 420 483 36,000 298 Climbing Fort Worth Center
04:34PM 35.7725 -98.2500 260° West 415 478 36,000  Level Fort Worth Center
04:35PM 35.7547 -98.4008 262° West 410 472 36,000  Level Fort Worth Center
04:36PM 35.7347 -98.5386 260° West 410 472 36,000  Level Fort Worth Center
04:37PM 35.7167 -98.6714 261° West 410 472 36,000  Level Fort Worth Center
04:38PM 35.6967 -98.8089 260° West 410 472 36,000  Level Fort Worth Center
04:39PM 35.6597 -98.9386 251° West 405 466 36,000  Level Fort Worth Center
04:40PM 35.6600 -99.0742 270° West 405 466 36,000  Level Fort Worth Center
04:41PM 35.6644 -99.2094 272° West 405 466 36,000  Level Fort Worth Center
04:42PM 35.6644 -99.3475 270° West 405 466 36,000  Level Fort Worth Center
04:44PM 35.6703 -99.5717 272° West 403 464 36,000  Level Albuquerque Center
04:45PM 35.6728 -99.7103 271° West 403 464 36,000  Level Albuquerque Center
04:46PM 35.6756 -99.8756 271° West 401 461 36,000  Level Albuquerque Center
04:47PM 35.6775 -100.0133 271° West 401 461 36,000  Level Albuquerque Center
04:48PM 35.6789 -100.1497 271° West 398 458 36,000  Level Albuquerque Center
04:49PM 35.6806 -100.2856 271° West 398 458 36,000  Level Albuquerque Center
04:50PM 35.6825 -100.4211 271° West 395 455 36,000  Level Albuquerque Center
04:51PM 35.6831 -100.5558 270° West 394 453 36,000  Level Albuquerque Center
04:52PM 35.6844 -100.6975 271° West 394 453 36,000  Level Albuquerque Center
04:53PM 35.6844 -100.8331 270° West 397 457 36,000  Level Albuquerque Center
04:54PM 35.6856 -100.9956 271° West 398 458 36,000  Level Albuquerque Center
04:55PM 35.6864 -101.1325 270° West 401 461 36,000  Level Albuquerque Center
04:56PM 35.6867 -101.2686 270° West 401 461 36,000  Level Albuquerque Center
04:57PM 35.6878 -101.4075 271° West 405 466 36,000  Level Albuquerque Center
04:58PM 35.6883 -101.5444 270° West 406 467 36,000  Level Albuquerque Center
04:59PM 35.6881 -101.7106 270° West 408 470 36,000  Level Albuquerque Center
05:00PM 35.6881 -101.8489 270° West 409 471 36,000  Level Albuquerque Center
05:01PM 35.6881 -101.9856 270° West 405 466 36,000  Level Albuquerque Center
05:02PM 35.6872 -102.1233 270° West 406 467 36,000  Level Albuquerque Center
05:03PM 35.6861 -102.2600 269° West 404 465 36,000  Level Albuquerque Center
05:04PM 35.6861 -102.4225 270° West 400 460 36,000  Level Albuquerque Center
05:05PM 35.6853 -102.5578 270° West 398 458 36,000  Level Albuquerque Center
05:06PM 35.6842 -102.6933 269° West 399 459 36,000  Level Albuquerque Center
05:07PM 35.6822 -102.8306 269° West 401 461 36,000  Level Albuquerque Center
05:08PM 35.6806 -102.9831 269° West 402 463 36,000  Level Albuquerque Center
05:09PM 35.6794 -103.1222 269° West 404 465 36,000  Level Albuquerque Center
05:10PM 35.6783 -103.2619 269° West 406 467 36,000  Level Albuquerque Center
05:11PM 35.6767 -103.3997 269° West 403 464 36,000  Level Albuquerque Center
05:12PM 35.6747 -103.5375 269° West 402 463 36,000  Level Albuquerque Center
05:14PM 35.6781 -103.6729 272° West  Level FlightAware Approximate
05:15PM 35.6697 -103.8367 272° West 403 464 36,000  Level Albuquerque Center
05:16PM 35.6661 -103.9756 268° West 405 466 36,000  Level Albuquerque Center
05:17PM 35.6647 -104.1139 269° West 405 466 36,000  Level Albuquerque Center
05:18PM 35.6614 -104.2517 268° West 403 464 36,000  Level Albuquerque Center
05:19PM 35.6581 -104.3892 268° West 402 463 36,000  Level Albuquerque Center
05:20PM 35.6553 -104.5478 269° West 398 458 36,000  Level Albuquerque Center
05:21PM 35.6517 -104.6839 268° West 397 457 36,000  Level Albuquerque Center
05:22PM 35.6481 -104.8217 268° West 400 460 36,000  Level Albuquerque Center
05:23PM 35.6439 -104.9594 268° West 401 461 36,000  Level Albuquerque Center
05:24PM 35.6408 -105.0981 268° West 403 464 36,000  Level Albuquerque Center
05:25PM 35.6350 -105.2378 267° West 406 467 36,000  Level Albuquerque Center
05:26PM 35.6322 -105.3781 269° West 408 470 36,000  Level Albuquerque Center
05:27PM 35.6250 -105.5419 267° West 409 471 36,000  Level Albuquerque Center
05:28PM 35.6219 -105.6800 268° West 404 465 36,000  Level Albuquerque Center
05:29PM 35.6178 -105.8189 268° West 404 465 36,000  Level Albuquerque Center
05:30PM 35.6133 -105.9500 268° West 406 467 36,000  Level Albuquerque Center
05:31PM 35.6081 -106.0875 267° West 405 466 36,000  Level Albuquerque Center
05:32PM 35.6039 -106.2536 268° West 407 468 36,000  Level Albuquerque Center
05:33PM 35.5981 -106.3931 267° West 410 472 36,000  Level Albuquerque Center
05:34PM 35.5925 -106.5300 267° West 406 467 36,000  Level Albuquerque Center
05:35PM 35.5875 -106.6675 267° West 406 467 36,000  Level Albuquerque Center
05:36PM 35.5814 -106.8056 267° West 407 468 36,000  Level Albuquerque Center
05:37PM 35.5756 -106.9439 267° West 409 471 36,000  Level Albuquerque Center
05:38PM 35.5681 -107.1078 267° West 405 466 36,000  Level Albuquerque Center
05:39PM 35.5606 -107.2553 266° West 403 464 36,000  Level Albuquerque Center
05:40PM 35.5544 -107.3858 267° West 401 461 36,000  Level Albuquerque Center
05:41PM 35.5481 -107.5381 267° West 401 461 36,000  Level Albuquerque Center
05:42PM 35.5411 -107.6708 266° West 403 464 36,000  Level Albuquerque Center
05:44PM 35.5331 -107.8244 266° West 404 465 36,000  Level Albuquerque Center
05:45PM 35.5269 -107.9578 267° West 407 468 36,000  Level Albuquerque Center
05:46PM 35.5203 -108.0897 266° West 406 467 36,000  Level Albuquerque Center
05:47PM 35.5117 -108.2461 266° West 408 470 36,000  Level Albuquerque Center
05:48PM 35.5056 -108.3778 267° West 405 466 36,000  Level Albuquerque Center
05:49PM 35.4972 -108.5317 266° West 404 465 36,000  Level Albuquerque Center
05:50PM 35.4892 -108.6619 266° West 400 460 36,000  Level Albuquerque Center
05:51PM 35.4808 -108.8150 266° West 400 460 36,000  Level Albuquerque Center
05:52PM 35.4808 -108.9450 270° West 398 458 36,000  Level Albuquerque Center
05:53PM 35.4878 -109.0739 274° West 395 455 36,000  Level Albuquerque Center
05:54PM 35.4942 -109.2244 273° West 394 453 36,000  Level Albuquerque Center
05:55PM 35.5006 -109.3533 274° West 394 453 36,000  Level Albuquerque Center
05:56PM 35.5075 -109.5036 273° West 396 456 36,000  Level Albuquerque Center
05:57PM 35.5133 -109.6292 273° West 389 448 36,000  Level Albuquerque Center
05:58PM 35.5194 -109.7769 273° West 387 445 36,000  Level Albuquerque Center
05:59PM 35.5228 -109.9061 272° West 396 456 36,000  Level Albuquerque Center
06:00PM 35.5278 -110.0339 273° West 393 452 36,000  Level Albuquerque Center
06:01PM 35.5356 -110.1847 274° West 395 455 36,000 -194 Level Albuquerque Center
06:02PM 35.5389 -110.3119 272° West 392 451 35,600 -919 Descending Albuquerque Center
06:03PM 35.5433 -110.4603 272° West 390 449 34,100 -1,355 Descending Albuquerque Center
06:04PM 35.5486 -110.5867 273° West 389 448 32,800 -1,415 Descending Albuquerque Center
06:05PM 35.5531 -110.7386 272° West 395 455 31,200 -1,366 Descending Albuquerque Center
06:06PM 35.5597 -110.8756 273° West 410 472 30,000 -581 Descending Albuquerque Center
06:07PM 35.5653 -111.0342 273° West 415 478 30,000  Level Albuquerque Center
06:08PM 35.5706 -111.1692 273° West 415 478 30,000  Level Albuquerque Center
06:09PM 35.5753 -111.3056 272° West 417 480 30,000  Level Albuquerque Center
06:10PM 35.5786 -111.4461 272° West 413 475 30,000  Level Albuquerque Center
06:11PM 35.5833 -111.5878 272° West 418 481 30,000  Level Albuquerque Center
06:12PM 35.5875 -111.7533 272° West 410 472 30,000  Level Albuquerque Center
06:13PM 35.5908 -111.8919 272° West 409 471 30,000  Level Albuquerque Center
06:14PM 35.5947 -112.0311 272° West 409 471 30,000  Level Albuquerque Center
06:15PM 35.5972 -112.1669 271° West 404 465 30,000  Level Albuquerque Center
06:17PM 35.6014 -112.3061 272° West 409 471 30,000  Level Albuquerque Center
06:17PM 35.6039 -112.3917 272° West 412 474 30,000  Level Los Angeles Center
06:18PM 35.6078 -112.5581 272° West 411 473 30,000  Level Los Angeles Center
06:19PM 35.6114 -112.7022 272° West 411 473 30,000 -435 Level Los Angeles Center
06:20PM 35.6133 -112.8428 271° West 412 474 29,100 -1,008 Descending Los Angeles Center
06:21PM 35.6158 -112.9792 271° West 387 445 27,900 -1,056 Descending Los Angeles Center
06:22PM 35.6181 -113.1056 271° West 373 429 26,900 -968 Descending Los Angeles Center
06:23PM 35.6200 -113.2319 271° West 370 426 25,900 -1,016 Descending Los Angeles Center
06:24PM 35.6225 -113.3622 271° West 367 422 24,800 -1,016 Descending Los Angeles Center
06:25PM 35.6236 -113.4842 271° West 361 415 23,800 -1,065 Descending Los Angeles Center
06:26PM 35.6356 -113.6289 276° West 358 412 22,600 -1,065 Descending Los Angeles Center
06:27PM 35.6533 -113.7461 281° West 350 403 21,600 -1,306 Descending Los Angeles Center
06:29PM 35.6700 -113.8597 280° West 345 397 19,900 -1,742 Descending Los Angeles Center
06:30PM 35.6847 -113.9714 279° West 337 388 18,000 -1,790 Descending Los Angeles Center
06:31PM 35.6997 -114.0789 280° West 325 374 16,200 -1,872 Descending Los Angeles Center
06:32PM 35.7178 -114.2050 280° West 314 361 14,100 -1,920 Descending Los Angeles Center
06:32PM 35.7278 -114.2694 281° West 314 361 13,000 -1,645 Descending Los Angeles Center
06:33PM 35.7317 -114.3081 277° West 307 353 12,400 -984 Descending Los Angeles Center
06:33PM 35.7444 -114.3728 284° West 305 351 12,000 -387 Descending Los Angeles Center
06:34PM 35.7656 -114.3939 321° Northwest 301 346 12,000 -98 Level Los Angeles Center
06:34PM 35.8128 -114.4161 339° North 277 319 11,900 -97 Descending Los Angeles Center
06:35PM 35.8364 -114.4253 343° North 276 318 11,900 -492 Level Los Angeles Center
06:35PM 35.8825 -114.4375 348° North 240 276 11,400 -774 Descending Los Angeles Center
06:36PM 35.9003 -114.4386 357° North 244 281 11,100 -985 Descending Los Angeles Center
06:36PM 35.9528 -114.4431 356° North 236 272 10,300 -1,065 Descending Los Angeles Center
06:37PM 35.9781 -114.4453 356° North 234 269 10,000 -655 Descending Los Angeles Center
06:37PM 36.0122 -114.4469 358° North 231 266 9,700 -774 Descending Los Angeles Center
06:38PM 36.0386 -114.4567 343° North 227 261 9,200 -1,182 Descending Los Angeles Center
06:38PM 36.0614 -114.5022 302° West 228 262 8,400 -1,161 Descending Los Angeles Center
06:39PM 36.0689 -114.5239 293° West 223 257 8,000 -393 Descending Los Angeles Center
06:39PM 36.0753 -114.5747 279° West 222 255 8,000  Level Los Angeles Center
06:40PM 36.0756 -114.5989 271° West 220 253 8,000  Level Los Angeles Center
06:40PM 36.0753 -114.6519 270° West 229 264 8,000  Level Los Angeles Center
06:41PM 36.0742 -114.6783 267° West 225 259 8,000  Level Los Angeles Center
06:41PM 36.0739 -114.7244 270° West 227 261 8,000  Level Los Angeles Center
06:42PM 36.0733 -114.7564 269° West 227 261 8,000 -806 Level Los Angeles Center
06:43PM 36.0753 -114.8092 273° West 231 266 7,100 -1,548 Descending Los Angeles Center
06:43PM 36.0739 -114.8525 268° West 229 264 6,400 -1,309 Descending Los Angeles Center
06:43PM 36.0731 -114.8872 268° West 228 262 5,900 -1,161 Descending Los Angeles Center
06:44PM 36.0742 -114.9325 272° West 232 267 5,200 -1,254 Descending Los Angeles Center
06:45PM 36.0739 -114.9694 269° West 217 250 4,500 -1,161 Descending Los Angeles Center
06:45PM 36.0742 -115.0039 271° West 223 257 4,000 -1,000 Descending Los Angeles Center
06:45PM 36.0722 -115.0311 265° West 194 223 3,600 -968 Descending Los Angeles Center
06:46PM 36.0736 -115.0653 273° West 202 232 3,000 -885 Descending Los Angeles Center
06:46PM 36.0739 -115.0892 271° West 168 193 2,700 -774 Descending Los Angeles Center
06:47PM 36.0739 -115.1219 270° West 182 209 2,200 -714 Descending Los Angeles Center
06:49PM 36.0667 -115.1500 270° West  Level FlightAware Approximate